M I D A S
Marine Information and Data Acquisition System
Tripno 2330 of the Zeeleeuw from 2012-06-15 05:49:47 to 2012-06-15 12:38:19
Back to CruiseResearch ActivitiesStationsMapUnderway DataData graphs

EquipmentUnitsComments
TimeDGPSUTC
LatitudeDGPSDM.mWGS84
LongitudeDGPSDM.mWGS84
SpeedMeteo Stationm/sRelative wind speed
DirectionMeteo StationdegRelative wind direction
TemperatureMeteo Stationdeg CelciusAir temperature
PressureMeteo StationPaAtmospheric pressure
HumidityMeteo Station%Relative humidity
Missing or incorrect values are displayed as -999
Metereological data collected by the RV Zeeleeuw from 2012-06-15 05:20:34 to 2012-06-15 12:57:41
                                                                                    Next 1000 lines
Time Latitude Longitude Speed Direction Temperature Pressure Humidity
2012-06-15 05:20:44 51°13.632 2°56.013 -999 356 15 100970 51
2012-06-15 05:20:49 51°13.632 2°56.013 -999 349 15 100960 51
2012-06-15 05:20:54 51°13.632 2°56.013 -999 -999 15 100960 51
2012-06-15 05:20:58 51°13.632 2°56.013 -999 10 15 100970 51
2012-06-15 05:21:04 51°13.632 2°56.013 -999 351 15 100970 51
2012-06-15 05:21:09 51°13.632 2°56.013 -999 1 15 100960 51
2012-06-15 05:21:13 51°13.632 2°56.013 -999 360 15 100960 51
2012-06-15 05:21:18 51°13.632 2°56.013 -999 358 15 100970 51
2012-06-15 05:21:23 51°13.632 2°56.013 -999 356 15 100970 51
2012-06-15 05:21:28 51°13.632 2°56.013 -999 347 15 100960 51
2012-06-15 05:21:33 51°13.632 2°56.012 -999 359 15 100960 51
2012-06-15 05:21:38 51°13.632 2°56.013 -999 349 15 100960 51
2012-06-15 05:21:44 51°13.632 2°56.013 -999 5 15 100960 51
2012-06-15 05:21:49 51°13.632 2°56.013 -999 355 15 100960 51
2012-06-15 05:21:54 51°13.632 2°56.013 -999 1 15 100960 51
2012-06-15 05:21:58 51°13.632 2°56.013 -999 352 15 100960 51
2012-06-15 05:22:03 51°13.633 2°56.013 -999 353 15 100960 51
2012-06-15 05:22:08 51°13.633 2°56.013 -999 347 15 100960 51
2012-06-15 05:22:13 51°13.632 2°56.013 -999 349 15 100960 51
2012-06-15 05:22:18 51°13.632 2°56.013 -999 -999 15 100960 52
2012-06-15 05:22:23 51°13.632 2°56.013 -999 353 15 100960 52
2012-06-15 05:22:27 51°13.632 2°56.014 -999 354 15 100960 51
2012-06-15 05:22:33 51°13.632 2°56.014 -999 356 15 100960 51
2012-06-15 05:22:37 51°13.632 2°56.013 -999 359 15 100960 50
2012-06-15 05:22:44 51°13.632 2°56.014 -999 354 15 100960 50
2012-06-15 05:22:48 51°13.632 2°56.014 -999 349 15 100960 51
2012-06-15 05:22:54 51°13.632 2°56.015 -999 354 15 100960 51
2012-06-15 05:22:59 51°13.632 2°56.015 -999 347 15 100960 51
2012-06-15 05:23:04 51°13.632 2°56.015 -999 3 15 100960 51
2012-06-15 05:23:09 51°13.632 2°56.015 -999 357 15 100960 51
2012-06-15 05:23:14 51°13.632 2°56.015 -999 10 15 100960 51
2012-06-15 05:23:19 51°13.632 2°56.016 -999 1 15 100960 51
2012-06-15 05:23:23 51°13.632 2°56.016 -999 351 15 100960 51
2012-06-15 05:23:29 51°13.631 2°56.016 -999 357 15 100960 51
2012-06-15 05:23:34 51°13.631 2°56.016 -999 359 15 100960 51
2012-06-15 05:23:39 51°13.632 2°56.015 -999 353 15 100960 51
2012-06-15 05:23:43 51°13.632 2°56.016 -999 2 15 100960 51
2012-06-15 05:23:49 51°13.632 2°56.016 -999 3 15 100960 51
2012-06-15 05:23:54 51°13.632 2°56.016 -999 358 15 100960 51
2012-06-15 05:23:58 51°13.632 2°56.016 -999 350 15 100960 51
2012-06-15 05:24:03 51°13.632 2°56.015 -999 281 15 100960 51
2012-06-15 05:24:07 51°13.632 2°56.015 -999 348 14.9 100960 51
2012-06-15 05:24:14 51°13.632 2°56.015 -999 350 14.9 100960 51
2012-06-15 05:24:19 51°13.632 2°56.016 -999 351 14.9 100960 52
2012-06-15 05:24:23 51°13.632 2°56.016 -999 349 14.9 100960 52
2012-06-15 05:24:28 51°13.632 2°56.016 -999 356 15 100960 52
2012-06-15 05:24:34 51°13.632 2°56.016 -999 1 15 100960 52
2012-06-15 05:24:39 51°13.632 2°56.016 -999 352 15 100960 52
2012-06-15 05:24:43 51°13.632 2°56.016 -999 281 15 100960 52
2012-06-15 05:24:49 51°13.632 2°56.015 -999 351 15 100950 51
2012-06-15 05:24:54 51°13.632 2°56.015 -999 355 15 100950 51
2012-06-15 05:24:59 51°13.632 2°56.014 -999 5 14.9 100960 51
2012-06-15 05:25:03 51°13.632 2°56.015 -999 359 14.9 100960 51
2012-06-15 05:25:08 51°13.632 2°56.015 -999 343 14.9 100950 52
2012-06-15 05:25:14 51°13.632 2°56.015 -999 281 14.9 100950 52
2012-06-15 05:25:19 51°13.632 2°56.015 -999 352 15 100950 50
2012-06-15 05:25:23 51°13.632 2°56.015 -999 353 15 100950 50
2012-06-15 05:25:28 51°13.632 2°56.015 -999 358 15 100950 52
2012-06-15 05:25:34 51°13.633 2°56.014 -999 357 15 100950 52
2012-06-15 05:25:39 51°13.633 2°56.014 -999 350 15 100950 52
2012-06-15 05:25:43 51°13.632 2°56.014 -999 2 15 100950 52
2012-06-15 05:25:49 51°13.632 2°56.014 -999 11 15 100950 52
2012-06-15 05:25:54 51°13.632 2°56.014 -999 16 15 100950 52
2012-06-15 05:25:59 51°13.632 2°56.014 -999 11 14.9 100950 52
2012-06-15 05:26:03 51°13.632 2°56.014 -999 281 14.9 100950 52
2012-06-15 05:26:08 51°13.632 2°56.014 -999 345 15 100950 52
2012-06-15 05:26:13 51°13.632 2°56.014 -999 4 15 100950 52
2012-06-15 05:26:18 51°13.632 2°56.015 -999 347 14.9 100950 52
2012-06-15 05:26:23 51°13.632 2°56.014 -999 352 14.9 100950 52
2012-06-15 05:26:28 51°13.632 2°56.014 -999 352 15 100950 52
2012-06-15 05:26:34 51°13.632 2°56.014 -999 352 15 100950 52
2012-06-15 05:26:39 51°13.632 2°56.014 -999 359 15 100950 52
2012-06-15 05:26:43 51°13.632 2°56.014 -999 355 15 100950 52
2012-06-15 05:26:48 51°13.632 2°56.014 -999 343 15 100950 52
2012-06-15 05:26:53 51°13.632 2°56.014 -999 354 15 100950 52
2012-06-15 05:26:58 51°13.632 2°56.014 -999 354 14.9 100950 52
2012-06-15 05:27:03 51°13.632 2°56.015 -999 281 14.9 100950 52
2012-06-15 05:27:09 51°13.632 2°56.015 -999 1 15 100950 52
2012-06-15 05:27:14 51°13.632 2°56.014 -999 12 15 100950 52
2012-06-15 05:27:18 51°13.632 2°56.014 -999 357 14.9 100950 52
2012-06-15 05:27:23 51°13.632 2°56.015 -999 7 14.9 100950 52
2012-06-15 05:27:28 51°13.632 2°56.014 -999 358 14.9 100950 52
2012-06-15 05:27:34 51°13.632 2°56.015 -999 -999 14.9 100950 52
2012-06-15 05:27:39 51°13.632 2°56.014 -999 3 14.9 100950 52
2012-06-15 05:27:43 51°13.632 2°56.014 -999 1 14.9 100950 52
2012-06-15 05:27:48 51°13.632 2°56.015 -999 345 14.9 100950 52
2012-06-15 05:27:53 51°13.632 2°56.014 -999 350 14.9 100950 52
2012-06-15 05:27:59 51°13.632 2°56.015 -999 357 14.9 100950 51
2012-06-15 05:28:03 51°13.632 2°56.015 -999 281 14.9 100950 51
2012-06-15 05:28:08 51°13.632 2°56.014 -999 341 14.9 100950 52
2012-06-15 05:28:14 51°13.632 2°56.015 -999 359 14.9 100950 52
2012-06-15 05:28:19 51°13.632 2°56.015 -999 358 14.9 100950 52
2012-06-15 05:28:23 51°13.632 2°56.015 -999 355 14.9 100950 52
2012-06-15 05:28:28 51°13.631 2°56.015 -999 340 14.9 100950 52
2012-06-15 05:28:34 51°13.632 2°56.014 -999 281 14.9 100950 52
2012-06-15 05:28:38 51°13.632 2°56.014 -999 357 14.9 100950 52
2012-06-15 05:28:43 51°13.632 2°56.014 -999 356 14.9 100950 52
2012-06-15 05:28:48 51°13.632 2°56.014 -999 -999 14.9 100950 52
2012-06-15 05:28:54 51°13.631 2°56.014 -999 2 14.9 100950 52
2012-06-15 05:28:58 51°13.631 2°56.014 -999 10 14.9 100950 52
2012-06-15 05:29:03 51°13.631 2°56.014 -999 9 14.9 100950 52
2012-06-15 05:29:09 51°13.631 2°56.014 -999 357 15 100950 52
2012-06-15 05:29:14 51°13.632 2°56.015 -999 351 15 100950 52
2012-06-15 05:29:19 51°13.632 2°56.015 -999 354 14.9 100950 52
2012-06-15 05:29:23 51°13.631 2°56.015 -999 -999 14.9 100950 52
2012-06-15 05:29:29 51°13.631 2°56.015 -999 349 14.9 100950 52
2012-06-15 05:29:34 51°13.631 2°56.015 -999 355 14.9 100950 52
2012-06-15 05:29:39 51°13.632 2°56.015 -999 353 14.9 100950 52
2012-06-15 05:29:43 51°13.632 2°56.014 -999 358 14.9 100950 52
2012-06-15 05:29:48 51°13.632 2°56.015 -999 -999 14.9 100950 52
2012-06-15 05:29:54 51°13.632 2°56.015 -999 7 14.9 100950 52
2012-06-15 05:29:59 51°13.631 2°56.015 -999 5 14.9 100950 52
2012-06-15 05:30:03 51°13.632 2°56.015 -999 1 14.9 100950 52
2012-06-15 05:30:08 51°13.632 2°56.015 -999 8 14.9 100950 52
2012-06-15 05:30:13 51°13.632 2°56.015 -999 12 14.9 100950 52
2012-06-15 05:30:19 51°13.632 2°56.015 -999 355 14.9 100950 52
2012-06-15 05:30:23 51°13.632 2°56.015 -999 350 14.9 100950 52
2012-06-15 05:30:28 51°13.632 2°56.015 -999 3 14.9 100950 52
2012-06-15 05:30:34 51°13.632 2°56.015 -999 4 14.9 100950 52
2012-06-15 05:30:38 51°13.631 2°56.015 -999 1 14.9 100950 50
2012-06-15 05:30:43 51°13.632 2°56.015 -999 10 14.9 100950 50
2012-06-15 05:30:48 51°13.632 2°56.015 -999 350 14.9 100950 52
2012-06-15 05:30:53 51°13.632 2°56.015 -999 352 14.9 100950 52
2012-06-15 05:30:58 51°13.632 2°56.015 -999 348 14.9 100950 52
2012-06-15 05:31:03 51°13.632 2°56.015 -999 356 14.9 100950 52
2012-06-15 05:31:08 51°13.632 2°56.015 -999 351 14.9 100940 52
2012-06-15 05:31:13 51°13.632 2°56.015 -999 1 14.9 100940 52
2012-06-15 05:31:18 51°13.632 2°56.015 -999 354 14.9 100950 52
2012-06-15 05:31:23 51°13.632 2°56.015 -999 359 14.9 100950 52
2012-06-15 05:31:27 51°13.632 2°56.015 -999 351 14.9 100950 52
2012-06-15 05:31:32 51°13.632 2°56.015 -999 350 14.9 100950 52
2012-06-15 05:31:37 51°13.632 2°56.015 -999 4 14.9 100950 52
2012-06-15 05:31:42 51°13.632 2°56.015 -999 281 14.9 100950 52
2012-06-15 05:31:47 51°13.632 2°56.015 -999 345 14.9 100950 52
2012-06-15 05:31:52 51°13.632 2°56.015 -999 357 14.9 100950 52
2012-06-15 05:31:57 51°13.632 2°56.015 -999 1 14.9 100950 52
2012-06-15 05:32:03 51°13.632 2°56.015 -999 349 14.9 100950 52
2012-06-15 05:32:08 51°13.632 2°56.015 -999 352 14.9 100950 52
2012-06-15 05:32:13 51°13.632 2°56.015 -999 356 14.9 100950 52
2012-06-15 05:32:18 51°13.632 2°56.015 -999 356 14.9 100950 52
2012-06-15 05:32:23 51°13.632 2°56.015 -999 358 14.9 100950 52
2012-06-15 05:32:28 51°13.632 2°56.015 -999 352 14.9 100950 52
2012-06-15 05:32:33 51°13.632 2°56.015 -999 349 14.9 100950 52
2012-06-15 05:32:38 51°13.632 2°56.015 -999 2 14.9 100950 52
2012-06-15 05:32:43 51°13.632 2°56.015 -999 1 14.9 100950 52
2012-06-15 05:32:48 51°13.632 2°56.015 -999 360 14.9 100950 52
2012-06-15 05:32:54 51°13.632 2°56.015 -999 357 14.9 100950 52
2012-06-15 05:32:58 51°13.632 2°56.015 -999 350 14.9 100950 52
2012-06-15 05:33:03 51°13.632 2°56.015 -999 358 14.9 100950 52
2012-06-15 05:33:09 51°13.632 2°56.015 -999 355 14.9 100950 52
2012-06-15 05:33:13 51°13.632 2°56.015 -999 3 14.9 100950 52
2012-06-15 05:33:19 51°13.632 2°56.015 -999 356 14.9 100960 51
2012-06-15 05:33:23 51°13.632 2°56.014 -999 352 14.9 100960 51
2012-06-15 05:33:28 51°13.632 2°56.014 -999 2 14.9 100950 52
2012-06-15 05:33:34 51°13.632 2°56.014 -999 7 14.9 100950 52
2012-06-15 05:33:39 51°13.632 2°56.014 -999 -999 14.9 100960 52
2012-06-15 05:33:43 51°13.632 2°56.014 -999 2 14.9 100960 52
2012-06-15 05:33:48 51°13.632 2°56.014 -999 2 14.9 100950 52
2012-06-15 05:33:54 51°13.632 2°56.014 -999 281 14.9 100950 52
2012-06-15 05:33:58 51°13.632 2°56.014 -999 7 14.9 100960 52
2012-06-15 05:34:03 51°13.632 2°56.015 -999 355 14.9 100960 52
2012-06-15 05:34:07 51°13.632 2°56.014 -999 5 14.9 100960 52
2012-06-15 05:34:13 51°13.632 2°56.015 -999 356 14.9 100960 52
2012-06-15 05:34:18 51°13.632 2°56.015 -999 11 14.9 100960 52
2012-06-15 05:34:23 51°13.632 2°56.015 -999 359 14.9 100960 52
2012-06-15 05:34:27 51°13.632 2°56.015 -999 5 14.9 100960 52
2012-06-15 05:34:32 51°13.632 2°56.015 -999 352 14.9 100960 52
2012-06-15 05:34:37 51°13.632 2°56.015 -999 355 14.9 100960 52
2012-06-15 05:34:42 51°13.632 2°56.014 -999 1 14.9 100960 52
2012-06-15 05:34:47 51°13.632 2°56.015 -999 10 14.9 100960 52
2012-06-15 05:34:52 51°13.632 2°56.015 -999 1 14.9 100960 52
2012-06-15 05:34:57 51°13.632 2°56.015 -999 5 14.9 100960 52
2012-06-15 05:35:02 51°13.632 2°56.015 -999 358 14.9 100960 52
2012-06-15 05:35:07 51°13.632 2°56.015 -999 356 14.8 100960 52
2012-06-15 05:35:11 51°13.632 2°56.015 -999 352 14.8 100960 52
2012-06-15 05:35:16 51°13.632 2°56.015 -999 354 14.8 100960 52
2012-06-15 05:35:22 51°13.632 2°56.015 1 358 14.8 100960 52
2012-06-15 05:35:26 51°13.631 2°56.016 0.1 355 14.9 100960 52
2012-06-15 05:35:31 51°13.631 2°56.016 0.1 2 14.9 100960 52
2012-06-15 05:35:37 51°13.631 2°56.016 -999 5 14.8 100960 52
2012-06-15 05:35:43 51°13.632 2°56.016 -999 360 14.8 100960 52
2012-06-15 05:35:48 51°13.632 2°56.016 -999 8 14.9 100960 52
2012-06-15 05:35:54 51°13.632 2°56.015 -999 349 14.9 100960 52
2012-06-15 05:35:58 51°13.632 2°56.015 -999 357 14.8 100960 51
2012-06-15 05:36:03 51°13.632 2°56.015 -999 358 14.8 100960 51
2012-06-15 05:36:08 51°13.632 2°56.015 -999 354 14.8 100960 52
2012-06-15 05:36:13 51°13.632 2°56.015 -999 357 14.8 100960 52
2012-06-15 05:36:18 51°13.632 2°56.015 -999 10 14.8 100960 52
2012-06-15 05:36:23 51°13.632 2°56.015 -999 1 14.8 100960 52
2012-06-15 05:36:28 51°13.632 2°56.015 -999 357 14.8 100960 52
2012-06-15 05:36:33 51°13.632 2°56.015 -999 358 14.8 100960 52
2012-06-15 05:36:38 51°13.633 2°56.015 -999 2 14.8 100960 52
2012-06-15 05:36:43 51°13.632 2°56.015 -999 357 14.8 100960 52
2012-06-15 05:36:48 51°13.633 2°56.014 -999 358 14.8 100960 52
2012-06-15 05:36:53 51°13.633 2°56.014 -999 354 14.8 100960 52
2012-06-15 05:36:59 51°13.633 2°56.014 -999 352 14.8 100960 52
2012-06-15 05:37:03 51°13.633 2°56.014 -999 281 14.8 100960 52
2012-06-15 05:37:08 51°13.633 2°56.014 -999 1 14.8 100960 52
2012-06-15 05:37:13 51°13.632 2°56.014 -999 2 14.8 100960 52
2012-06-15 05:37:18 51°13.633 2°56.014 -999 5 14.8 100960 52
2012-06-15 05:37:23 51°13.633 2°56.014 -999 349 14.8 100960 52
2012-06-15 05:37:28 51°13.633 2°56.015 -999 8 14.8 100950 52
2012-06-15 05:37:33 51°13.632 2°56.015 -999 359 14.8 100950 52
2012-06-15 05:37:38 51°13.633 2°56.014 -999 359 14.8 100960 52
2012-06-15 05:37:43 51°13.633 2°56.013 -999 13 14.8 100960 52
2012-06-15 05:37:48 51°13.632 2°56.013 -999 360 14.8 100950 52
2012-06-15 05:37:53 51°13.632 2°56.014 -999 -999 14.8 100950 52
2012-06-15 05:37:58 51°13.633 2°56.014 -999 356 14.8 100960 52
2012-06-15 05:38:03 51°13.632 2°56.014 -999 356 14.8 100960 52
2012-06-15 05:38:08 51°13.632 2°56.014 -999 356 14.8 100960 52
2012-06-15 05:38:12 51°13.632 2°56.014 -999 7 14.8 100960 52
2012-06-15 05:38:17 51°13.632 2°56.014 -999 6 14.8 100960 52
2012-06-15 05:38:22 51°13.632 2°56.014 -999 4 14.8 100960 52
2012-06-15 05:38:27 51°13.632 2°56.014 -999 14 14.8 100950 52
2012-06-15 05:38:32 51°13.632 2°56.014 -999 16 14.8 100950 52
2012-06-15 05:38:38 51°13.632 2°56.014 -999 356 14.8 100950 51
2012-06-15 05:38:43 51°13.632 2°56.014 -999 6 14.8 100950 51
2012-06-15 05:38:48 51°13.632 2°56.014 -999 349 14.8 100950 52
2012-06-15 05:38:54 51°13.631 2°56.014 -999 -999 14.8 100950 52
2012-06-15 05:38:58 51°13.631 2°56.014 -999 360 14.8 100950 52
2012-06-15 05:39:04 51°13.631 2°56.014 -999 13 14.8 100950 52
2012-06-15 05:39:08 51°13.631 2°56.014 -999 356 14.8 100950 52
2012-06-15 05:39:13 51°13.631 2°56.013 -999 7 14.8 100950 52
2012-06-15 05:39:19 51°13.631 2°56.012 -999 12 14.8 100950 52
2012-06-15 05:39:24 51°13.632 2°56.01 -999 18 14.8 100950 52
2012-06-15 05:39:28 51°13.632 2°56.008 -999 17 14.8 100950 52
2012-06-15 05:39:33 51°13.633 2°56.005 -999 25 14.8 100950 52
2012-06-15 05:39:39 51°13.633 2°55.999 -999 17 14.8 100950 52
2012-06-15 05:39:44 51°13.634 2°55.994 -999 34 14.8 100950 52
2012-06-15 05:39:48 51°13.635 2°55.99 -999 10 14.8 100950 52
2012-06-15 05:39:54 51°13.637 2°55.982 0.1 -999 14.8 100950 52
2012-06-15 05:39:59 51°13.638 2°55.974 0.1 18 14.8 100950 52
2012-06-15 05:40:04 51°13.64 2°55.967 0.6 18 14.8 100950 52
2012-06-15 05:40:08 51°13.641 2°55.961 0.1 34 14.8 100950 52
2012-06-15 05:40:14 51°13.643 2°55.952 0.1 38 14.8 100950 52
2012-06-15 05:40:19 51°13.644 2°55.943 0.2 31 14.8 100950 52
2012-06-15 05:40:24 51°13.646 2°55.935 0.3 35 14.8 100950 52
2012-06-15 05:40:28 51°13.648 2°55.929 0.1 33 14.8 100950 52
2012-06-15 05:40:34 51°13.65 2°55.919 0.1 28 14.8 100950 52
2012-06-15 05:40:38 51°13.651 2°55.912 0.1 38 14.8 100950 52
2012-06-15 05:40:43 51°13.653 2°55.904 0.1 37 14.8 100950 52
2012-06-15 05:40:48 51°13.655 2°55.896 0.1 21 14.9 100950 52
2012-06-15 05:40:53 51°13.657 2°55.888 -999 -999 14.9 100950 52
2012-06-15 05:40:58 51°13.659 2°55.88 -999 25 14.8 100940 52
2012-06-15 05:41:03 51°13.662 2°55.872 -999 29 14.8 100940 52
2012-06-15 05:41:08 51°13.664 2°55.863 -999 23 14.8 100940 52
2012-06-15 05:41:13 51°13.666 2°55.855 -999 20 14.8 100940 52
2012-06-15 05:41:18 51°13.669 2°55.848 -999 23 14.8 100950 51
2012-06-15 05:41:23 51°13.672 2°55.84 -999 18 14.8 100950 51
2012-06-15 05:41:28 51°13.675 2°55.833 -999 14 14.8 100940 52
2012-06-15 05:41:33 51°13.679 2°55.826 -999 13 14.8 100940 52
2012-06-15 05:41:39 51°13.684 2°55.818 0.1 17 14.8 100940 52
2012-06-15 05:41:43 51°13.688 2°55.812 0.1 9 14.8 100940 52
2012-06-15 05:41:48 51°13.693 2°55.805 0.1 6 14.8 100940 52
2012-06-15 05:41:53 51°13.697 2°55.798 -999 18 14.8 100940 52
2012-06-15 05:41:57 51°13.701 2°55.794 -999 19 14.8 100940 52
2012-06-15 05:42:04 51°13.707 2°55.785 -999 40 14.8 100940 52
2012-06-15 05:42:09 51°13.711 2°55.78 -999 28 14.8 100940 52
2012-06-15 05:42:14 51°13.716 2°55.774 1.1 18 14.8 100940 52
2012-06-15 05:42:18 51°13.719 2°55.77 0.1 13 14.8 100940 52
2012-06-15 05:42:24 51°13.725 2°55.763 0.2 8 14.8 100940 52
2012-06-15 05:42:29 51°13.729 2°55.758 0.1 2 14.8 100950 52
2012-06-15 05:42:34 51°13.733 2°55.753 0.2 358 14.8 100950 52
2012-06-15 05:42:38 51°13.737 2°55.748 0.1 9 14.8 100940 52
2012-06-15 05:42:43 51°13.741 2°55.742 0.1 20 14.8 100940 52
2012-06-15 05:42:49 51°13.747 2°55.735 -999 7 14.8 100940 52
2012-06-15 05:42:53 51°13.751 2°55.73 -999 -999 14.8 100940 52
2012-06-15 05:42:58 51°13.756 2°55.724 -999 12 14.8 100940 52
2012-06-15 05:43:03 51°13.761 2°55.718 -999 8 14.8 100940 52
2012-06-15 05:43:08 51°13.766 2°55.712 -999 4 14.8 100940 52
2012-06-15 05:43:14 51°13.772 2°55.704 -999 13 14.8 100940 52
2012-06-15 05:43:19 51°13.777 2°55.698 -999 12 14.8 100940 52
2012-06-15 05:43:23 51°13.782 2°55.693 -999 3 14.8 100940 52
2012-06-15 05:43:29 51°13.788 2°55.686 -999 352 14.8 100940 52
2012-06-15 05:43:34 51°13.794 2°55.68 0.4 356 14.8 100940 52
2012-06-15 05:43:39 51°13.8 2°55.674 0.3 13 14.8 100940 52
2012-06-15 05:43:43 51°13.804 2°55.67 0.8 353 14.8 100940 52
2012-06-15 05:43:48 51°13.811 2°55.665 0.3 -999 14.8 100940 53
2012-06-15 05:43:54 51°13.818 2°55.658 0.4 -999 14.8 100940 53
2012-06-15 05:43:59 51°13.824 2°55.653 0.1 10 14.8 100940 51
2012-06-15 05:44:03 51°13.829 2°55.649 0.1 17 14.8 100940 51
2012-06-15 05:44:08 51°13.835 2°55.644 1.5 350 14.8 100950 52
2012-06-15 05:44:13 51°13.841 2°55.639 0.7 11 14.8 100950 52
2012-06-15 05:44:18 51°13.847 2°55.634 1.4 349 14.8 100940 52
2012-06-15 05:44:23 51°13.853 2°55.629 2.2 5 14.8 100940 52
2012-06-15 05:44:28 51°13.858 2°55.625 0.2 7 14.8 100950 52
2012-06-15 05:44:33 51°13.864 2°55.62 1.7 282 14.8 100950 52
2012-06-15 05:44:38 51°13.87 2°55.616 0.7 334 14.7 100940 52
2012-06-15 05:44:43 51°13.875 2°55.613 2.3 284 14.7 100940 52
2012-06-15 05:44:48 51°13.88 2°55.61 1.7 333 14.8 100950 52
2012-06-15 05:44:54 51°13.887 2°55.606 0.7 -999 14.8 100950 52
2012-06-15 05:44:58 51°13.891 2°55.604 0.1 5 14.8 100950 52
2012-06-15 05:45:03 51°13.896 2°55.602 0.1 282 14.8 100950 52
2012-06-15 05:45:08 51°13.901 2°55.6 0.4 350 14.8 100950 52
2012-06-15 05:45:14 51°13.907 2°55.599 1.1 282 14.8 100950 52
2012-06-15 05:45:19 51°13.912 2°55.598 0.1 348 14.7 100950 52
2012-06-15 05:45:23 51°13.915 2°55.598 0.4 352 14.7 100950 52
2012-06-15 05:45:28 51°13.92 2°55.598 0.1 321 14.8 100950 53
2012-06-15 05:45:33 51°13.925 2°55.598 0.1 335 14.8 100950 53
2012-06-15 05:45:38 51°13.93 2°55.599 -999 323 14.7 100950 52
2012-06-15 05:45:43 51°13.934 2°55.6 -999 305 14.7 100950 52
2012-06-15 05:45:47 51°13.937 2°55.601 -999 339 14.8 100950 52
2012-06-15 05:45:54 51°13.944 2°55.603 -999 281 14.8 100950 52
2012-06-15 05:45:59 51°13.948 2°55.605 2.4 18 14.8 100950 52
2012-06-15 05:46:04 51°13.952 2°55.607 0.1 305 14.8 100950 52
2012-06-15 05:46:08 51°13.954 2°55.608 0.1 25 14.7 100950 51
2012-06-15 05:46:13 51°13.958 2°55.611 -999 305 14.7 100950 51
2012-06-15 05:46:19 51°13.962 2°55.614 -999 24 14.8 100950 52
2012-06-15 05:46:24 51°13.964 2°55.615 -999 305 14.8 100950 52
2012-06-15 05:46:28 51°13.965 2°55.616 -999 25 14.8 100950 52
2012-06-15 05:46:33 51°13.967 2°55.617 -999 305 14.8 100950 52
2012-06-15 05:46:38 51°13.968 2°55.617 -999 24 14.8 100950 52
2012-06-15 05:46:44 51°13.969 2°55.617 -999 305 14.8 100950 52
2012-06-15 05:46:48 51°13.97 2°55.616 -999 24 14.8 100950 52
2012-06-15 05:46:53 51°13.969 2°55.613 -999 305 14.8 100950 52
2012-06-15 05:46:58 51°13.969 2°55.609 -999 258 14.8 100950 52
2012-06-15 05:47:03 51°13.969 2°55.604 -999 305 14.8 100950 52
2012-06-15 05:47:08 51°13.971 2°55.597 -999 260 14.8 100950 52
2012-06-15 05:47:14 51°13.972 2°55.588 -999 305 14.8 100950 52
2012-06-15 05:47:18 51°13.974 2°55.582 -999 258 14.8 100960 52
2012-06-15 05:47:23 51°13.978 2°55.573 -999 305 14.8 100960 52
2012-06-15 05:47:28 51°13.982 2°55.565 -999 27 14.8 100950 52
2012-06-15 05:47:33 51°13.988 2°55.557 -999 56 14.8 100950 52
2012-06-15 05:47:39 51°13.995 2°55.548 -999 25 14.8 100960 52
2012-06-15 05:47:43 51°14 2°55.541 -999 55 14.8 100960 52
2012-06-15 05:47:48 51°14.008 2°55.534 -999 25 14.8 100960 52
2012-06-15 05:47:53 51°14.015 2°55.526 -999 60 14.8 100960 52
2012-06-15 05:47:59 51°14.024 2°55.517 -999 26 14.8 100960 52
2012-06-15 05:48:04 51°14.032 2°55.509 -999 57 14.8 100960 52
2012-06-15 05:48:09 51°14.041 2°55.5 -999 25 14.8 100960 52
2012-06-15 05:48:13 51°14.048 2°55.493 -999 55 14.8 100960 52
2012-06-15 05:48:19 51°14.06 2°55.484 -999 24 14.8 100960 52
2012-06-15 05:48:24 51°14.07 2°55.475 -999 55 14.8 100960 52
2012-06-15 05:48:29 51°14.08 2°55.466 -999 24 14.8 100960 52
2012-06-15 05:48:33 51°14.088 2°55.458 -999 305 14.8 100960 52
2012-06-15 05:48:38 51°14.098 2°55.449 -999 247 14.8 100960 52
2012-06-15 05:48:44 51°14.111 2°55.437 -999 54 14.8 100960 52
2012-06-15 05:48:49 51°14.121 2°55.427 -999 270 14.8 100960 51
2012-06-15 05:48:53 51°14.131 2°55.419 -999 282 14.8 100960 51
2012-06-15 05:48:58 51°14.142 2°55.41 -999 256 14.8 100960 52
2012-06-15 05:49:04 51°14.155 2°55.397 -999 304 14.8 100960 52
2012-06-15 05:49:09 51°14.167 2°55.386 -999 316 14.8 100960 52
2012-06-15 05:49:13 51°14.176 2°55.378 -999 305 14.8 100960 52
2012-06-15 05:49:18 51°14.188 2°55.367 -999 25 14.8 100960 52
2012-06-15 05:49:24 51°14.202 2°55.356 -999 305 14.8 100960 52
2012-06-15 05:49:29 51°14.214 2°55.346 -999 24 14.8 100960 52
2012-06-15 05:49:33 51°14.223 2°55.337 -999 305 14.8 100960 52
2012-06-15 05:49:38 51°14.235 2°55.326 -999 247 14.8 100960 52
2012-06-15 05:49:43 51°14.246 2°55.315 -999 305 14.8 100960 52
2012-06-15 05:49:48 51°14.258 2°55.304 -999 247 14.8 100960 52
2012-06-15 05:49:53 51°14.27 2°55.293 -999 281 14.8 100960 52
2012-06-15 05:49:58 51°14.283 2°55.281 -999 24 14.8 100950 52
2012-06-15 05:50:03 51°14.295 2°55.27 -999 305 14.8 100950 52
2012-06-15 05:50:08 51°14.307 2°55.258 -999 24 14.8 100960 52
2012-06-15 05:50:13 51°14.319 2°55.246 -999 305 14.8 100960 52
2012-06-15 05:50:18 51°14.331 2°55.234 -999 24 14.8 100960 52
2012-06-15 05:50:23 51°14.345 2°55.222 -999 305 14.8 100960 52
2012-06-15 05:50:28 51°14.359 2°55.211 -999 24 14.8 100960 52
2012-06-15 05:50:33 51°14.371 2°55.199 -999 305 14.8 100960 52
2012-06-15 05:50:38 51°14.384 2°55.185 -999 316 14.8 100960 52
2012-06-15 05:50:43 51°14.396 2°55.172 -999 305 14.8 100960 52
2012-06-15 05:50:48 51°14.409 2°55.16 -999 24 14.8 100950 52
2012-06-15 05:50:53 51°14.423 2°55.147 -999 305 14.8 100950 52
2012-06-15 05:50:58 51°14.436 2°55.133 -999 24 14.8 100950 52
2012-06-15 05:51:03 51°14.449 2°55.119 -999 305 14.8 100950 52
2012-06-15 05:51:08 51°14.462 2°55.105 -999 24 14.8 100950 52
2012-06-15 05:51:13 51°14.475 2°55.092 -999 305 14.8 100950 52
2012-06-15 05:51:18 51°14.489 2°55.078 -999 255 14.8 100950 52
2012-06-15 05:51:23 51°14.502 2°55.064 -999 305 14.8 100950 52
2012-06-15 05:51:28 51°14.515 2°55.051 -999 254 14.8 100950 51
2012-06-15 05:51:34 51°14.531 2°55.034 -999 305 14.8 100950 51
2012-06-15 05:51:37 51°14.538 2°55.025 -999 24 14.8 100960 52
2012-06-15 05:51:43 51°14.553 2°55.007 -999 305 14.8 100960 52
2012-06-15 05:51:47 51°14.563 2°54.996 -999 250 14.8 100960 52
2012-06-15 05:51:52 51°14.577 2°54.985 -999 305 14.8 100960 52
2012-06-15 05:51:57 51°14.591 2°54.977 -999 262 14.8 100960 52
2012-06-15 05:52:02 51°14.606 2°54.968 -999 305 14.8 100960 52
2012-06-15 05:52:07 51°14.62 2°54.958 -999 267 14.8 100960 52
2012-06-15 05:52:12 51°14.634 2°54.949 -999 305 14.8 100960 52
2012-06-15 05:52:17 51°14.65 2°54.939 -999 259 14.8 100960 52
2012-06-15 05:52:22 51°14.664 2°54.93 -999 305 14.8 100960 52
2012-06-15 05:52:26 51°14.676 2°54.922 -999 259 14.8 100960 52
2012-06-15 05:52:32 51°14.694 2°54.91 -999 305 14.8 100960 52
2012-06-15 05:52:37 51°14.709 2°54.899 -999 252 14.8 100960 52
2012-06-15 05:52:42 51°14.723 2°54.887 -999 305 14.8 100960 52
2012-06-15 05:52:46 51°14.733 2°54.877 -999 248 14.8 100970 52
2012-06-15 05:52:51 51°14.748 2°54.865 -999 281 14.8 100970 52
2012-06-15 05:52:56 51°14.762 2°54.85 -999 253 14.8 100970 52
2012-06-15 05:53:01 51°14.775 2°54.834 -999 305 14.8 100970 52
2012-06-15 05:53:06 51°14.787 2°54.817 -999 251 14.9 100970 52
2012-06-15 05:53:10 51°14.797 2°54.803 -999 305 14.9 100970 52
2012-06-15 05:53:15 51°14.809 2°54.785 -999 249 14.9 100960 52
2012-06-15 05:53:20 51°14.822 2°54.767 -999 305 14.9 100960 52
2012-06-15 05:53:25 51°14.834 2°54.749 -999 24 14.9 100960 52
2012-06-15 05:53:30 51°14.846 2°54.73 -999 305 14.9 100960 52
2012-06-15 05:53:35 51°14.858 2°54.71 -999 251 14.9 100960 52
2012-06-15 05:53:40 51°14.869 2°54.69 -999 305 14.9 100960 52
2012-06-15 05:53:45 51°14.879 2°54.669 -999 250 14.9 100970 52
2012-06-15 05:53:50 51°14.89 2°54.649 -999 281 14.9 100970 52
2012-06-15 05:53:55 51°14.9 2°54.628 -999 248 14.9 100960 52
2012-06-15 05:54:00 51°14.91 2°54.606 -999 305 14.9 100960 52
2012-06-15 05:54:05 51°14.921 2°54.585 -999 250 14.9 100960 51
2012-06-15 05:54:10 51°14.931 2°54.563 6.7 310 14.9 100960 51
2012-06-15 05:54:15 51°14.941 2°54.541 10.3 23 14.9 100970 52
2012-06-15 05:54:20 51°14.95 2°54.519 8.9 307 14.9 100970 52
2012-06-15 05:54:25 51°14.959 2°54.497 9.2 250 14.9 100960 52
2012-06-15 05:54:30 51°14.969 2°54.474 7.6 306 14.9 100960 52
2012-06-15 05:54:35 51°14.979 2°54.453 7.6 19 14.9 100970 53
2012-06-15 05:54:40 51°14.989 2°54.432 8.1 310 14.9 100970 53
2012-06-15 05:54:45 51°14.999 2°54.411 6.9 20 14.9 100960 52
2012-06-15 05:54:50 51°15.009 2°54.389 8.6 283 14.9 100960 52
2012-06-15 05:54:55 51°15.021 2°54.369 8.5 257 14.9 100960 52
2012-06-15 05:55:01 51°15.034 2°54.346 8 306 14.9 100960 52
2012-06-15 05:55:05 51°15.043 2°54.33 6.3 251 14.9 100970 53
2012-06-15 05:55:10 51°15.054 2°54.311 7.5 304 14.9 100970 53
2012-06-15 05:55:15 51°15.065 2°54.293 8 255 14.9 100960 52
2012-06-15 05:55:20 51°15.078 2°54.275 7.6 305 14.9 100960 52
2012-06-15 05:55:25 51°15.089 2°54.257 7.9 257 14.9 100970 52
2012-06-15 05:55:30 51°15.101 2°54.239 7.5 309 14.9 100970 52
2012-06-15 05:55:34 51°15.111 2°54.224 9.1 254 14.9 100970 53
2012-06-15 05:55:40 51°15.124 2°54.201 8 304 14.9 100970 53
2012-06-15 05:55:45 51°15.136 2°54.182 6.5 254 14.9 100970 52
2012-06-15 05:55:50 51°15.148 2°54.164 6.9 301 14.9 100970 52
2012-06-15 05:55:54 51°15.158 2°54.149 6.8 255 14.9 100970 52
2012-06-15 05:56:00 51°15.172 2°54.128 7.8 307 14.9 100970 52
2012-06-15 05:56:05 51°15.184 2°54.11 6.8 253 14.9 100980 53
2012-06-15 05:56:10 51°15.197 2°54.093 5.8 302 14.9 100980 53
2012-06-15 05:56:15 51°15.21 2°54.077 7.2 256 14.9 100970 52
2012-06-15 05:56:20 51°15.223 2°54.061 7.9 309 14.9 100970 52
2012-06-15 05:56:25 51°15.235 2°54.044 7.7 258 14.9 100970 53
2012-06-15 05:56:30 51°15.249 2°54.029 5.4 303 14.9 100970 53
2012-06-15 05:56:34 51°15.259 2°54.017 6.7 250 14.9 100980 53
2012-06-15 05:56:40 51°15.276 2°54 6.3 304 14.9 100980 53
2012-06-15 05:56:45 51°15.289 2°53.985 6.9 260 14.9 100980 51
2012-06-15 05:56:50 51°15.303 2°53.971 5.9 284 14.9 100980 51
2012-06-15 05:56:54 51°15.315 2°53.96 6 252 14.9 100980 53
2012-06-15 05:57:00 51°15.332 2°53.944 6 307 14.9 100980 53
2012-06-15 05:57:05 51°15.346 2°53.93 7.5 258 14.9 100980 53
2012-06-15 05:57:10 51°15.36 2°53.917 6.9 303 14.9 100980 53
2012-06-15 05:57:14 51°15.372 2°53.907 4.4 264 14.9 100970 51
2012-06-15 05:57:20 51°15.389 2°53.892 6.4 303 14.9 100970 51
2012-06-15 05:57:25 51°15.404 2°53.879 5.8 263 14.9 100980 53
2012-06-15 05:57:30 51°15.418 2°53.866 6.1 308 14.9 100980 53
2012-06-15 05:57:34 51°15.43 2°53.856 5.6 261 14.9 100970 53
2012-06-15 05:57:40 51°15.447 2°53.839 6.2 303 14.9 100970 53
2012-06-15 05:57:45 51°15.461 2°53.826 6.5 263 14.9 100980 52
2012-06-15 05:57:50 51°15.475 2°53.813 7.3 301 14.9 100980 52
2012-06-15 05:57:54 51°15.487 2°53.802 6.6 260 14.9 100980 52
2012-06-15 05:58:00 51°15.504 2°53.786 6.9 309 14.9 100980 52
2012-06-15 05:58:05 51°15.518 2°53.772 5.7 259 14.9 100980 53
2012-06-15 05:58:11 51°15.534 2°53.755 6.2 304 14.9 100980 53
2012-06-15 05:58:14 51°15.543 2°53.747 7.1 255 14.9 100980 52
2012-06-15 05:58:19 51°15.558 2°53.733 8.3 306 14.9 100980 52
2012-06-15 05:58:24 51°15.572 2°53.72 7.1 260 14.9 100980 52
2012-06-15 05:58:29 51°15.585 2°53.703 5.5 302 14.9 100980 52
2012-06-15 05:58:35 51°15.602 2°53.687 6.1 255 14.9 100980 52
2012-06-15 05:58:40 51°15.615 2°53.67 7.2 302 14.9 100980 52
2012-06-15 05:58:45 51°15.628 2°53.656 9.3 257 14.9 100980 52
2012-06-15 05:58:50 51°15.642 2°53.64 8.6 279 14.9 100980 52
2012-06-15 05:58:55 51°15.656 2°53.626 8.6 254 14.9 100980 52
2012-06-15 05:59:00 51°15.669 2°53.61 10.2 307 14.9 100980 52
2012-06-15 05:59:05 51°15.683 2°53.596 7 259 14.9 100980 52
2012-06-15 05:59:11 51°15.7 2°53.579 5.7 310 14.9 100980 52
2012-06-15 05:59:15 51°15.712 2°53.568 4.4 255 14.9 100980 52
2012-06-15 05:59:20 51°15.726 2°53.555 4.4 303 14.9 100980 52
2012-06-15 05:59:25 51°15.74 2°53.541 6.3 264 14.9 100980 51
2012-06-15 05:59:30 51°15.754 2°53.528 7.2 307 14.9 100980 51
2012-06-15 05:59:35 51°15.769 2°53.514 6.8 262 14.9 100980 52
2012-06-15 05:59:39 51°15.78 2°53.503 5.2 303 14.9 100980 52
2012-06-15 05:59:45 51°15.797 2°53.487 5.7 257 14.9 100980 52
2012-06-15 05:59:50 51°15.811 2°53.473 6.9 303 14.9 100980 52
2012-06-15 05:59:55 51°15.825 2°53.459 6.2 258 14.9 100970 53
2012-06-15 06:00:00 51°15.839 2°53.445 5.8 304 14.9 100970 53
2012-06-15 06:00:06 51°15.856 2°53.43 5.5 259 14.9 100980 52
2012-06-15 06:00:11 51°15.871 2°53.417 4.3 304 14.9 100980 52
2012-06-15 06:00:16 51°15.885 2°53.405 4.2 264 14.9 100970 52
2012-06-15 06:00:21 51°15.899 2°53.393 4.2 309 14.9 100970 52
2012-06-15 06:00:26 51°15.914 2°53.38 4.2 263 14.9 100970 52
2012-06-15 06:00:31 51°15.929 2°53.369 4.8 307 14.9 100970 52
2012-06-15 06:00:35 51°15.941 2°53.36 6.8 260 14.9 100970 52
2012-06-15 06:00:40 51°15.955 2°53.348 5.4 303 14.9 100970 52
2012-06-15 06:00:45 51°15.969 2°53.334 4.8 257 14.9 100980 52
2012-06-15 06:00:50 51°15.984 2°53.321 7.9 286 14.9 100980 52
2012-06-15 06:00:55 51°15.998 2°53.308 5.3 256 14.9 100980 52
2012-06-15 06:01:00 51°16.013 2°53.295 3.3 301 14.9 100980 52
2012-06-15 06:01:05 51°16.027 2°53.282 5.3 258 14.9 100980 52
2012-06-15 06:01:11 51°16.045 2°53.267 4.5 303 14.9 100980 52
2012-06-15 06:01:15 51°16.056 2°53.257 5.4 261 14.9 100970 52
2012-06-15 06:01:20 51°16.071 2°53.244 4.9 303 14.9 100970 52
2012-06-15 06:01:25 51°16.086 2°53.232 0.3 258 14.9 100970 53
2012-06-15 06:01:30 51°16.1 2°53.219 0.1 305 14.9 100970 53
2012-06-15 06:01:35 51°16.115 2°53.207 0.1 256 14.9 100970 53
2012-06-15 06:01:40 51°16.129 2°53.193 -999 305 14.9 100970 53
2012-06-15 06:01:45 51°16.144 2°53.181 -999 252 14.9 100970 52
2012-06-15 06:01:50 51°16.158 2°53.168 -999 305 14.9 100970 52
2012-06-15 06:01:55 51°16.173 2°53.155 -999 258 14.9 100960 52
2012-06-15 06:01:59 51°16.185 2°53.145 -999 305 14.9 100960 52
2012-06-15 06:02:05 51°16.202 2°53.129 -999 260 14.9 100970 51
2012-06-15 06:02:10 51°16.216 2°53.115 -999 305 14.9 100970 51
2012-06-15 06:02:15 51°16.231 2°53.102 -999 256 14.9 100970 52
2012-06-15 06:02:20 51°16.246 2°53.089 -999 305 14.9 100970 52
2012-06-15 06:02:25 51°16.26 2°53.076 -999 259 14.9 100960 52
2012-06-15 06:02:30 51°16.275 2°53.062 -999 305 14.9 100960 52
2012-06-15 06:02:35 51°16.289 2°53.048 -999 258 14.9 100960 52
2012-06-15 06:02:40 51°16.304 2°53.034 -999 305 14.9 100960 52
2012-06-15 06:02:45 51°16.318 2°53.021 -999 256 14.9 100960 52
2012-06-15 06:02:50 51°16.332 2°53.007 -999 281 14.9 100960 52
2012-06-15 06:02:55 51°16.347 2°52.995 -999 258 14.9 100960 52
2012-06-15 06:02:59 51°16.358 2°52.984 -999 305 14.9 100960 52
2012-06-15 06:03:05 51°16.375 2°52.968 -999 263 14.9 100960 52
2012-06-15 06:03:10 51°16.389 2°52.954 6 301 14.9 100960 52
2012-06-15 06:03:15 51°16.403 2°52.939 6.1 258 14.9 100950 52
2012-06-15 06:03:19 51°16.413 2°52.928 5.4 306 14.9 100950 52
2012-06-15 06:03:25 51°16.43 2°52.911 7.1 262 14.9 100950 52
2012-06-15 06:03:30 51°16.444 2°52.898 2.3 309 14.9 100950 52
2012-06-15 06:03:35 51°16.458 2°52.885 3.1 262 14.9 100960 52
2012-06-15 06:03:40 51°16.473 2°52.872 3.3 303 14.9 100960 52
2012-06-15 06:03:45 51°16.487 2°52.861 3.6 254 14.9 100950 53
2012-06-15 06:03:50 51°16.502 2°52.849 4.1 284 14.9 100950 53
2012-06-15 06:03:55 51°16.517 2°52.838 5.9 260 14.9 100960 53
2012-06-15 06:04:00 51°16.532 2°52.828 4 307 14.9 100960 53
2012-06-15 06:04:05 51°16.547 2°52.818 0.2 263 14.8 100960 52
2012-06-15 06:04:10 51°16.562 2°52.807 0.1 305 14.8 100960 52
2012-06-15 06:04:15 51°16.576 2°52.796 0.1 263 14.9 100960 52
2012-06-15 06:04:19 51°16.588 2°52.787 -999 305 14.9 100960 52
2012-06-15 06:04:25 51°16.606 2°52.773 4.1 261 14.9 100960 52
2012-06-15 06:04:30 51°16.62 2°52.762 2.9 301 14.9 100960 52
2012-06-15 06:04:35 51°16.635 2°52.75 3.3 267 14.9 100960 52
2012-06-15 06:04:40 51°16.649 2°52.738 3.4 301 14.9 100960 52
2012-06-15 06:04:45 51°16.663 2°52.727 2.2 264 14.8 100960 51
2012-06-15 06:04:50 51°16.678 2°52.715 0.1 281 14.8 100960 51
2012-06-15 06:04:55 51°16.692 2°52.703 0.1 258 14.8 100950 53
2012-06-15 06:05:00 51°16.706 2°52.692 -999 305 14.8 100950 53
2012-06-15 06:05:05 51°16.721 2°52.68 -999 262 14.9 100950 52
2012-06-15 06:05:10 51°16.735 2°52.668 -999 305 14.9 100950 52
2012-06-15 06:05:15 51°16.75 2°52.657 -999 263 14.9 100960 51
2012-06-15 06:05:19 51°16.761 2°52.647 -999 305 14.9 100960 51
2012-06-15 06:05:25 51°16.778 2°52.634 -999 260 14.8 100950 52
2012-06-15 06:05:30 51°16.792 2°52.622 -999 305 14.8 100950 52
2012-06-15 06:05:35 51°16.807 2°52.611 -999 261 14.8 100960 52
2012-06-15 06:05:39 51°16.818 2°52.602 -999 305 14.8 100960 52
2012-06-15 06:05:44 51°16.833 2°52.591 -999 256 14.8 100950 52
2012-06-15 06:05:50 51°16.85 2°52.578 -999 305 14.8 100950 52
2012-06-15 06:05:55 51°16.865 2°52.566 -999 261 14.8 100960 52
2012-06-15 06:05:59 51°16.876 2°52.557 -999 305 14.8 100960 52
2012-06-15 06:06:05 51°16.893 2°52.544 -999 263 14.8 100960 52
2012-06-15 06:06:10 51°16.908 2°52.533 -999 305 14.8 100960 52
2012-06-15 06:06:15 51°16.922 2°52.524 -999 262 14.8 100950 52
2012-06-15 06:06:19 51°16.934 2°52.516 -999 305 14.8 100950 52
2012-06-15 06:06:25 51°16.952 2°52.506 -999 264 14.8 100960 52
2012-06-15 06:06:30 51°16.967 2°52.497 -999 305 14.8 100960 52
2012-06-15 06:06:35 51°16.982 2°52.49 -999 270 14.8 100950 52
2012-06-15 06:06:40 51°16.997 2°52.482 -999 305 14.8 100950 52
2012-06-15 06:06:45 51°17.012 2°52.475 -999 268 14.8 100960 52
2012-06-15 06:06:50 51°17.028 2°52.468 -999 281 14.8 100960 52
2012-06-15 06:06:55 51°17.043 2°52.462 -999 264 14.8 100960 52
2012-06-15 06:07:00 51°17.058 2°52.456 -999 305 14.8 100960 52
2012-06-15 06:07:05 51°17.074 2°52.45 -999 260 14.8 100960 52
2012-06-15 06:07:10 51°17.089 2°52.443 -999 305 14.8 100960 52
2012-06-15 06:07:15 51°17.105 2°52.437 -999 268 14.8 100960 53
2012-06-15 06:07:19 51°17.117 2°52.433 -999 307 14.8 100960 53
2012-06-15 06:07:25 51°17.136 2°52.426 -999 29 14.8 100960 51
2012-06-15 06:07:30 51°17.151 2°52.42 -999 305 14.8 100960 51
2012-06-15 06:07:35 51°17.166 2°52.414 -999 268 14.8 100960 53
2012-06-15 06:07:39 51°17.179 2°52.41 -999 58 14.8 100960 53
2012-06-15 06:07:45 51°17.197 2°52.404 -999 270 14.8 100960 52
2012-06-15 06:07:50 51°17.213 2°52.4 -999 281 14.8 100960 52
2012-06-15 06:07:55 51°17.229 2°52.396 -999 28 14.8 100960 51
2012-06-15 06:07:59 51°17.241 2°52.393 -999 55 14.8 100960 51
2012-06-15 06:08:05 51°17.26 2°52.389 -999 25 14.8 100960 52
2012-06-15 06:08:10 51°17.276 2°52.386 -999 55 14.8 100960 52
2012-06-15 06:08:15 51°17.291 2°52.384 -999 25 14.8 100960 52
2012-06-15 06:08:19 51°17.304 2°52.383 -999 307 14.8 100960 52
2012-06-15 06:08:25 51°17.323 2°52.381 -999 23 14.8 100960 52
2012-06-15 06:08:30 51°17.339 2°52.38 -999 56 14.8 100960 52
2012-06-15 06:08:35 51°17.355 2°52.379 -999 25 14.8 100960 52
2012-06-15 06:08:39 51°17.368 2°52.377 -999 55 14.8 100960 52
2012-06-15 06:08:45 51°17.386 2°52.376 -999 24 14.8 100970 52
2012-06-15 06:08:50 51°17.402 2°52.375 -999 15 14.8 100970 52
2012-06-15 06:08:55 51°17.418 2°52.372 -999 25 14.8 100960 53
2012-06-15 06:08:59 51°17.43 2°52.371 -999 55 14.8 100960 53
2012-06-15 06:09:05 51°17.449 2°52.37 -999 25 14.8 100970 52
2012-06-15 06:09:10 51°17.465 2°52.367 -999 55 14.8 100970 52
2012-06-15 06:09:15 51°17.481 2°52.366 -999 25 14.8 100960 52
2012-06-15 06:09:20 51°17.497 2°52.364 -999 59 14.8 100960 52
2012-06-15 06:09:25 51°17.513 2°52.361 -999 15 14.8 100970 52
2012-06-15 06:09:30 51°17.529 2°52.359 -999 55 14.8 100970 52
2012-06-15 06:09:35 51°17.545 2°52.357 -999 25 14.8 100970 52
2012-06-15 06:09:39 51°17.557 2°52.355 -999 55 14.8 100970 52
2012-06-15 06:09:45 51°17.576 2°52.352 -999 25 14.8 100970 52
2012-06-15 06:09:50 51°17.592 2°52.349 -999 55 14.8 100970 52
2012-06-15 06:09:55 51°17.608 2°52.346 -999 24 14.8 100970 52
2012-06-15 06:09:59 51°17.621 2°52.344 -999 55 14.8 100970 52
2012-06-15 06:10:05 51°17.64 2°52.341 -999 24 14.8 100960 51
2012-06-15 06:10:10 51°17.655 2°52.339 -999 56 14.8 100960 51
2012-06-15 06:10:15 51°17.671 2°52.336 -999 25 14.8 100970 52
2012-06-15 06:10:19 51°17.684 2°52.334 -999 55 14.8 100970 52
2012-06-15 06:10:24 51°17.7 2°52.331 -999 26 14.8 100970 52
2012-06-15 06:10:30 51°17.718 2°52.326 -999 55 14.8 100970 52
2012-06-15 06:10:35 51°17.733 2°52.321 -999 265 14.8 100980 51
2012-06-15 06:10:39 51°17.746 2°52.318 -999 300 14.8 100980 51
2012-06-15 06:10:44 51°17.762 2°52.312 -999 26 14.8 100970 52
2012-06-15 06:10:50 51°17.78 2°52.306 -999 79 14.8 100970 52
2012-06-15 06:10:55 51°17.796 2°52.302 -999 25 14.8 100970 52
2012-06-15 06:10:59 51°17.809 2°52.298 -999 309 14.8 100970 52
2012-06-15 06:11:05 51°17.827 2°52.293 -999 264 14.8 100970 52
2012-06-15 06:11:10 51°17.843 2°52.288 -999 305 14.8 100970 52
2012-06-15 06:11:15 51°17.858 2°52.282 -999 270 14.8 100980 52
2012-06-15 06:11:19 51°17.871 2°52.277 -999 58 14.8 100980 52
2012-06-15 06:11:25 51°17.889 2°52.27 -999 26 14.8 100980 52
2012-06-15 06:11:30 51°17.905 2°52.265 -999 308 14.8 100980 52
2012-06-15 06:11:35 51°17.921 2°52.261 -999 29 14.8 100970 52
2012-06-15 06:11:40 51°17.937 2°52.256 -999 60 14.8 100970 52
2012-06-15 06:11:45 51°17.952 2°52.252 -999 26 14.8 100980 52
2012-06-15 06:11:50 51°17.968 2°52.248 -999 79 14.8 100980 52
2012-06-15 06:11:55 51°17.984 2°52.245 -999 24 14.8 100980 52
2012-06-15 06:11:59 51°17.997 2°52.242 -999 56 14.8 100980 52
2012-06-15 06:12:05 51°18.016 2°52.236 -999 270 14.8 100980 53
2012-06-15 06:12:10 51°18.032 2°52.231 -999 307 14.8 100980 53
2012-06-15 06:12:15 51°18.047 2°52.226 -999 265 14.8 100970 52
2012-06-15 06:12:19 51°18.06 2°52.222 -999 305 14.8 100970 52
2012-06-15 06:12:24 51°18.076 2°52.216 -999 259 14.8 100980 52
2012-06-15 06:12:30 51°18.094 2°52.209 -999 305 14.8 100980 52
2012-06-15 06:12:35 51°18.11 2°52.203 -999 264 14.8 100970 53
2012-06-15 06:12:39 51°18.122 2°52.199 -999 305 14.8 100970 53
2012-06-15 06:12:45 51°18.141 2°52.192 -999 270 14.8 100970 51
2012-06-15 06:12:50 51°18.157 2°52.187 -999 305 14.8 100970 51
2012-06-15 06:12:55 51°18.173 2°52.181 -999 29 14.8 100970 53
2012-06-15 06:12:59 51°18.185 2°52.176 -999 56 14.8 100970 53
2012-06-15 06:13:05 51°18.204 2°52.17 -999 270 14.8 100970 52
2012-06-15 06:13:10 51°18.22 2°52.165 -999 58 14.8 100970 52
2012-06-15 06:13:15 51°18.236 2°52.161 -999 270 14.8 100970 51
2012-06-15 06:13:20 51°18.252 2°52.157 -999 305 14.8 100970 51
2012-06-15 06:13:24 51°18.264 2°52.154 -999 267 14.8 100970 52
2012-06-15 06:13:30 51°18.283 2°52.149 -999 305 14.8 100970 52
2012-06-15 06:13:35 51°18.3 2°52.146 -999 28 14.8 100970 52
2012-06-15 06:13:40 51°18.315 2°52.142 -999 55 14.8 100970 52
2012-06-15 06:13:45 51°18.332 2°52.139 -999 25 14.8 100980 53
2012-06-15 06:13:50 51°18.348 2°52.135 -999 33 14.8 100980 53
2012-06-15 06:13:55 51°18.364 2°52.133 -999 269 14.8 100970 52
2012-06-15 06:13:59 51°18.377 2°52.131 -999 55 14.8 100970 52
2012-06-15 06:14:05 51°18.396 2°52.127 -999 25 14.8 100970 52
2012-06-15 06:14:10 51°18.412 2°52.124 -999 309 14.8 100970 52
2012-06-15 06:14:15 51°18.428 2°52.12 -999 265 14.8 100970 52
2012-06-15 06:14:19 51°18.441 2°52.117 -999 307 14.8 100970 52
2012-06-15 06:14:25 51°18.46 2°52.112 -999 257 14.8 100970 52
2012-06-15 06:14:30 51°18.476 2°52.107 -999 307 14.8 100970 52
2012-06-15 06:14:35 51°18.492 2°52.101 -999 266 14.8 100980 52
2012-06-15 06:14:39 51°18.504 2°52.096 -999 307 14.8 100980 52
2012-06-15 06:14:45 51°18.523 2°52.089 -999 265 14.8 100970 53
2012-06-15 06:14:50 51°18.538 2°52.084 -999 307 14.8 100970 53
2012-06-15 06:14:55 51°18.554 2°52.078 -999 27 14.8 100970 53
2012-06-15 06:14:59 51°18.567 2°52.074 -999 307 14.8 100970 53
2012-06-15 06:15:05 51°18.585 2°52.069 -999 268 14.8 100970 52
2012-06-15 06:15:10 51°18.602 2°52.065 -999 55 14.8 100970 52
2012-06-15 06:15:15 51°18.618 2°52.061 -999 25 14.8 100980 52
2012-06-15 06:15:19 51°18.63 2°52.058 -999 310 14.8 100980 52
2012-06-15 06:15:24 51°18.647 2°52.055 -999 270 14.8 100980 51
2012-06-15 06:15:30 51°18.666 2°52.052 -999 300 14.8 100980 51
2012-06-15 06:15:35 51°18.682 2°52.049 -999 270 14.8 100970 52
2012-06-15 06:15:39 51°18.695 2°52.046 -999 60 14.8 100970 52
2012-06-15 06:15:45 51°18.714 2°52.043 -999 28 14.8 100960 52
2012-06-15 06:15:50 51°18.731 2°52.041 -999 79 14.8 100960 52
2012-06-15 06:15:55 51°18.747 2°52.038 -999 265 14.9 100970 51
2012-06-15 06:15:59 51°18.76 2°52.035 -999 58 14.9 100970 51
2012-06-15 06:16:05 51°18.78 2°52.032 -999 25 14.8 100960 52
2012-06-15 06:16:10 51°18.796 2°52.029 -999 55 14.8 100960 52
2012-06-15 06:16:15 51°18.812 2°52.025 -999 24 14.8 100970 52
2012-06-15 06:16:19 51°18.825 2°52.023 -999 309 14.8 100970 52
2012-06-15 06:16:25 51°18.844 2°52.019 -999 270 14.9 100970 52
2012-06-15 06:16:30 51°18.86 2°52.016 -999 60 14.9 100970 52
2012-06-15 06:16:35 51°18.877 2°52.012 -999 21 14.8 100970 52
2012-06-15 06:16:39 51°18.89 2°52.009 -999 309 14.8 100970 52
2012-06-15 06:16:45 51°18.909 2°52.002 -999 268 14.8 100970 52
2012-06-15 06:16:50 51°18.925 2°51.998 -999 281 14.8 100970 52
2012-06-15 06:16:55 51°18.941 2°51.992 -999 270 14.9 100970 52
2012-06-15 06:16:59 51°18.954 2°51.987 -999 305 14.9 100970 52
2012-06-15 06:17:05 51°18.973 2°51.981 -999 264 14.8 100970 52
2012-06-15 06:17:10 51°18.989 2°51.975 -999 307 14.8 100970 52
2012-06-15 06:17:15 51°19.005 2°51.969 -999 263 14.8 100960 52
2012-06-15 06:17:19 51°19.018 2°51.964 -999 305 14.8 100960 52
2012-06-15 06:17:24 51°19.034 2°51.958 -999 29 14.8 100970 52
2012-06-15 06:17:30 51°19.053 2°51.951 -999 56 14.8 100970 52
2012-06-15 06:17:35 51°19.068 2°51.945 -999 264 14.9 100970 52
2012-06-15 06:17:39 51°19.081 2°51.941 -999 305 14.9 100970 52
2012-06-15 06:17:45 51°19.1 2°51.935 -999 262 14.9 100960 52
2012-06-15 06:17:50 51°19.116 2°51.929 -999 300 14.9 100960 52
2012-06-15 06:17:55 51°19.132 2°51.923 -999 270 14.9 100980 52
2012-06-15 06:17:59 51°19.145 2°51.919 -999 53 14.9 100980 52
2012-06-15 06:18:05 51°19.164 2°51.913 -999 265 14.9 100970 51
2012-06-15 06:18:10 51°19.181 2°51.908 -999 305 14.9 100970 51
2012-06-15 06:18:15 51°19.197 2°51.903 -999 265 14.9 100970 52
2012-06-15 06:18:19 51°19.209 2°51.898 -999 305 14.9 100970 52
2012-06-15 06:18:25 51°19.229 2°51.893 -999 29 14.9 100980 52
2012-06-15 06:18:30 51°19.245 2°51.888 -999 56 14.9 100980 52
2012-06-15 06:18:35 51°19.261 2°51.884 -999 25 14.9 100970 51
2012-06-15 06:18:39 51°19.274 2°51.881 -999 55 14.9 100970 51
2012-06-15 06:18:45 51°19.293 2°51.877 -999 25 14.9 100970 52
2012-06-15 06:18:50 51°19.309 2°51.873 -999 282 14.9 100970 52
2012-06-15 06:18:55 51°19.326 2°51.87 -999 27 14.9 100970 52
2012-06-15 06:18:59 51°19.338 2°51.867 -999 57 14.9 100970 52
2012-06-15 06:19:05 51°19.358 2°51.862 -999 22 14.9 100970 52
2012-06-15 06:19:10 51°19.374 2°51.857 -999 56 14.9 100970 52
2012-06-15 06:19:15 51°19.389 2°51.852 -999 25 14.8 100970 52
2012-06-15 06:19:19 51°19.402 2°51.847 -999 305 14.8 100970 52
2012-06-15 06:19:24 51°19.418 2°51.841 -999 262 14.8 100960 52
2012-06-15 06:19:30 51°19.438 2°51.834 -999 305 14.8 100960 52
2012-06-15 06:19:35 51°19.454 2°51.829 -999 266 14.9 100980 52
2012-06-15 06:19:39 51°19.467 2°51.825 -999 305 14.9 100980 52
2012-06-15 06:19:45 51°19.486 2°51.819 -999 266 14.9 100970 52
2012-06-15 06:19:50 51°19.502 2°51.815 -999 59 14.9 100970 52
2012-06-15 06:19:55 51°19.518 2°51.812 -999 26 14.9 100960 52
2012-06-15 06:19:59 51°19.531 2°51.808 -999 55 14.9 100960 52
2012-06-15 06:20:05 51°19.55 2°51.803 -999 270 14.9 100970 52
2012-06-15 06:20:10 51°19.566 2°51.799 -999 305 14.9 100970 52
2012-06-15 06:20:15 51°19.582 2°51.795 -999 265 14.9 100960 52
2012-06-15 06:20:19 51°19.595 2°51.791 -999 305 14.9 100960 52
2012-06-15 06:20:25 51°19.614 2°51.785 -999 264 14.9 100970 52
2012-06-15 06:20:30 51°19.63 2°51.78 -999 305 14.9 100970 52
2012-06-15 06:20:35 51°19.646 2°51.774 -999 267 14.9 100980 52
2012-06-15 06:20:40 51°19.662 2°51.768 -999 60 14.9 100980 52
2012-06-15 06:20:45 51°19.678 2°51.764 -999 269 14.9 100960 51
2012-06-15 06:20:50 51°19.694 2°51.758 -999 281 14.9 100960 51
2012-06-15 06:20:55 51°19.71 2°51.753 -999 265 14.9 100970 52
2012-06-15 06:20:59 51°19.723 2°51.75 -999 58 14.9 100970 52
2012-06-15 06:21:05 51°19.742 2°51.744 -999 270 14.8 100970 52
2012-06-15 06:21:10 51°19.759 2°51.739 -999 307 14.8 100970 52
2012-06-15 06:21:15 51°19.775 2°51.735 -999 23 14.9 100980 51
2012-06-15 06:21:19 51°19.788 2°51.731 -999 60 14.9 100980 51
2012-06-15 06:21:25 51°19.807 2°51.727 -999 28 14.9 100970 52
2012-06-15 06:21:30 51°19.823 2°51.723 -999 304 14.9 100970 52
2012-06-15 06:21:35 51°19.839 2°51.721 -999 25 14.9 100980 52
2012-06-15 06:21:39 51°19.852 2°51.718 -999 55 14.9 100980 52
2012-06-15 06:21:44 51°19.869 2°51.716 -999 269 14.9 100970 52
2012-06-15 06:21:50 51°19.888 2°51.712 -999 281 14.9 100970 52
2012-06-15 06:21:55 51°19.904 2°51.709 -999 268 14.9 100970 52
2012-06-15 06:21:59 51°19.917 2°51.707 -999 309 14.9 100970 52
2012-06-15 06:22:05 51°19.936 2°51.704 -999 268 14.9 100970 52
2012-06-15 06:22:10 51°19.953 2°51.701 -999 57 14.9 100970 52
2012-06-15 06:22:15 51°19.969 2°51.698 -999 27 14.9 100960 52
2012-06-15 06:22:19 51°19.982 2°51.696 -999 305 14.9 100960 52
2012-06-15 06:22:25 51°20.002 2°51.694 -999 259 14.9 100980 52
2012-06-15 06:22:30 51°20.018 2°51.692 -999 305 14.9 100980 52
2012-06-15 06:22:35 51°20.035 2°51.69 -999 267 14.9 100970 52
2012-06-15 06:22:40 51°20.051 2°51.689 -999 55 14.9 100970 52
2012-06-15 06:22:45 51°20.067 2°51.687 -999 270 14.9 100970 52
2012-06-15 06:22:50 51°20.083 2°51.685 -999 307 14.9 100970 52
2012-06-15 06:22:55 51°20.1 2°51.683 -999 270 14.9 100970 52
2012-06-15 06:22:59 51°20.113 2°51.681 -999 55 14.9 100970 52
2012-06-15 06:23:05 51°20.132 2°51.679 -999 25 14.9 100970 52
2012-06-15 06:23:10 51°20.149 2°51.677 -999 309 14.9 100970 52
2012-06-15 06:23:15 51°20.165 2°51.675 -999 28 14.9 100970 52
2012-06-15 06:23:19 51°20.178 2°51.675 -999 58 14.9 100970 52
2012-06-15 06:23:25 51°20.198 2°51.674 -999 26 14.9 100960 51
2012-06-15 06:23:30 51°20.214 2°51.673 -999 56 14.9 100960 51
2012-06-15 06:23:35 51°20.231 2°51.673 -999 25 14.9 100960 52
2012-06-15 06:23:39 51°20.243 2°51.672 -999 305 14.9 100960 52
2012-06-15 06:23:44 51°20.26 2°51.673 -999 267 14.9 100970 52
2012-06-15 06:23:50 51°20.28 2°51.672 -999 79 14.9 100970 52
2012-06-15 06:23:55 51°20.296 2°51.672 -999 25 14.9 100970 51
2012-06-15 06:23:59 51°20.309 2°51.671 -999 55 14.9 100970 51
2012-06-15 06:24:04 51°20.325 2°51.669 -999 262 14.9 100960 52
2012-06-15 06:24:10 51°20.345 2°51.667 -999 305 14.9 100960 52
2012-06-15 06:24:15 51°20.361 2°51.665 -999 267 14.9 100970 52
2012-06-15 06:24:19 51°20.374 2°51.663 -999 305 14.9 100970 52
2012-06-15 06:24:24 51°20.391 2°51.66 -999 270 14.9 100970 52
2012-06-15 06:24:30 51°20.41 2°51.657 -999 307 14.9 100970 52
2012-06-15 06:24:35 51°20.426 2°51.654 -999 265 14.9 100960 52
2012-06-15 06:24:39 51°20.439 2°51.653 -999 57 14.9 100960 52
2012-06-15 06:24:45 51°20.459 2°51.652 -999 25 14.9 100960 52
2012-06-15 06:24:50 51°20.475 2°51.652 -999 55 14.9 100960 52
2012-06-15 06:24:55 51°20.492 2°51.651 -999 267 14.9 100970 52
2012-06-15 06:24:59 51°20.505 2°51.651 -999 56 14.9 100970 52
2012-06-15 06:25:05 51°20.525 2°51.649 -999 25 14.9 100960 52
2012-06-15 06:25:10 51°20.541 2°51.648 -999 309 14.9 100960 52
2012-06-15 06:25:15 51°20.557 2°51.646 -999 269 14.9 100960 52
2012-06-15 06:25:19 51°20.57 2°51.644 -999 305 14.9 100960 52
2012-06-15 06:25:25 51°20.59 2°51.642 -999 27 14.9 100960 52
2012-06-15 06:25:30 51°20.606 2°51.64 -999 58 14.9 100960 52
2012-06-15 06:25:35 51°20.623 2°51.639 -999 270 14.9 100960 52
2012-06-15 06:25:39 51°20.636 2°51.638 -999 305 14.9 100960 52
2012-06-15 06:25:44 51°20.652 2°51.637 -999 259 14.9 100970 52
2012-06-15 06:25:50 51°20.672 2°51.635 -999 305 14.9 100970 52
2012-06-15 06:25:55 51°20.688 2°51.633 -999 268 14.9 100960 52
2012-06-15 06:25:59 51°20.701 2°51.632 -999 300 14.9 100960 52
2012-06-15 06:26:04 51°20.717 2°51.629 -999 249 14.9 100960 51
2012-06-15 06:26:10 51°20.737 2°51.625 -999 307 14.9 100960 51
2012-06-15 06:26:15 51°20.753 2°51.623 -999 267 14.9 100960 52
2012-06-15 06:26:19 51°20.766 2°51.62 -999 305 14.9 100960 52
2012-06-15 06:26:25 51°20.785 2°51.615 -999 15 14.9 100970 53
2012-06-15 06:26:30 51°20.801 2°51.612 -999 305 14.9 100970 53
2012-06-15 06:26:35 51°20.817 2°51.607 -999 260 14.9 100970 51
2012-06-15 06:26:39 51°20.83 2°51.605 -999 305 14.9 100970 51
2012-06-15 06:26:45 51°20.85 2°51.6 -999 267 14.9 100960 52
2012-06-15 06:26:50 51°20.866 2°51.596 -999 285 14.9 100960 52
2012-06-15 06:26:55 51°20.882 2°51.593 -999 263 14.9 100970 52
2012-06-15 06:26:59 51°20.895 2°51.59 -999 305 14.9 100970 52
2012-06-15 06:27:05 51°20.915 2°51.586 -999 24 14.9 100960 52
2012-06-15 06:27:10 51°20.931 2°51.583 -999 55 14.9 100960 52
2012-06-15 06:27:15 51°20.947 2°51.58 -999 25 14.9 100950 52
2012-06-15 06:27:20 51°20.963 2°51.577 -999 55 14.9 100950 52
2012-06-15 06:27:24 51°20.976 2°51.575 -999 25 14.9 100960 52
2012-06-15 06:27:30 51°20.996 2°51.572 -999 307 14.9 100960 52
2012-06-15 06:27:35 51°21.012 2°51.57 -999 270 14.9 100970 52
2012-06-15 06:27:39 51°21.025 2°51.568 -999 58 14.9 100970 52
2012-06-15 06:27:45 51°21.045 2°51.565 -999 269 14.9 100960 52
2012-06-15 06:27:50 51°21.062 2°51.563 -999 307 14.9 100960 52
2012-06-15 06:27:55 51°21.078 2°51.562 -999 270 14.9 100960 52
2012-06-15 06:27:59 51°21.091 2°51.56 -999 300 14.9 100960 52
2012-06-15 06:28:05 51°21.111 2°51.558 -999 268 14.9 100960 52
2012-06-15 06:28:10 51°21.127 2°51.556 -999 58 14.9 100960 52
2012-06-15 06:28:15 51°21.144 2°51.555 -999 268 14.9 100960 52
2012-06-15 06:28:19 51°21.157 2°51.554 -999 55 14.9 100960 52
2012-06-15 06:28:25 51°21.177 2°51.552 -999 25 14.9 100960 52
2012-06-15 06:28:30 51°21.194 2°51.551 -999 55 14.9 100960 52
2012-06-15 06:28:35 51°21.21 2°51.551 -999 25 14.9 100960 52
2012-06-15 06:28:39 51°21.223 2°51.549 -999 55 14.9 100960 52
2012-06-15 06:28:45 51°21.243 2°51.549 -999 25 14.9 100960 52
2012-06-15 06:28:50 51°21.26 2°51.548 -999 282 14.9 100960 52
2012-06-15 06:28:55 51°21.276 2°51.547 -999 28 14.9 100960 52
2012-06-15 06:28:59 51°21.289 2°51.547 -999 307 14.9 100960 52
2012-06-15 06:29:05 51°21.309 2°51.547 -999 27 14.9 100960 52
2012-06-15 06:29:10 51°21.325 2°51.547 -999 55 14.9 100960 52
2012-06-15 06:29:15 51°21.342 2°51.547 -999 269 14.9 100950 51
2012-06-15 06:29:20 51°21.359 2°51.547 -999 307 14.9 100950 51
2012-06-15 06:29:25 51°21.375 2°51.547 -999 265 14.9 100970 52
2012-06-15 06:29:30 51°21.392 2°51.547 -999 60 14.9 100970 52
2012-06-15 06:29:35 51°21.408 2°51.546 -999 26 14.9 100960 52
2012-06-15 06:29:39 51°21.422 2°51.547 -999 305 14.9 100960 52
2012-06-15 06:29:45 51°21.441 2°51.547 -999 265 14.9 100960 52
2012-06-15 06:29:50 51°21.458 2°51.546 -999 59 14.9 100960 52
2012-06-15 06:29:55 51°21.475 2°51.545 -999 270 14.9 100960 52
2012-06-15 06:29:59 51°21.488 2°51.544 -999 58 14.9 100960 52
2012-06-15 06:30:05 51°21.508 2°51.542 -999 268 14.9 100960 52
2012-06-15 06:30:10 51°21.524 2°51.539 -999 305 14.9 100960 52
2012-06-15 06:30:15 51°21.541 2°51.536 -999 261 14.9 100960 52
2012-06-15 06:30:19 51°21.554 2°51.533 -999 300 14.9 100960 52
2012-06-15 06:30:24 51°21.571 2°51.53 -999 270 14.9 100960 52
2012-06-15 06:30:30 51°21.591 2°51.527 -999 305 14.9 100960 52
2012-06-15 06:30:35 51°21.608 2°51.524 -999 30 14.9 100960 52
2012-06-15 06:30:39 51°21.621 2°51.522 -999 305 14.9 100960 52
2012-06-15 06:30:45 51°21.641 2°51.519 -999 270 14.9 100950 52
2012-06-15 06:30:50 51°21.657 2°51.515 -999 84 14.9 100950 52
2012-06-15 06:30:55 51°21.674 2°51.513 -999 270 14.9 100960 52
2012-06-15 06:30:59 51°21.687 2°51.511 -999 307 14.9 100960 52
2012-06-15 06:31:05 51°21.707 2°51.507 -999 262 15 100960 52
2012-06-15 06:31:10 51°21.724 2°51.505 -999 305 15 100960 52
2012-06-15 06:31:15 51°21.741 2°51.503 -999 263 14.9 100970 52
2012-06-15 06:31:19 51°21.754 2°51.501 -999 300 14.9 100970 52
2012-06-15 06:31:25 51°21.774 2°51.499 -999 269 14.9 100960 52
2012-06-15 06:31:30 51°21.79 2°51.496 -999 307 14.9 100960 52
2012-06-15 06:31:35 51°21.807 2°51.493 -999 267 14.9 100950 52
2012-06-15 06:31:39 51°21.82 2°51.491 -999 305 14.9 100950 52
2012-06-15 06:31:45 51°21.84 2°51.489 -999 27 14.9 100960 52
2012-06-15 06:31:50 51°21.858 2°51.488 -999 302 14.9 100960 52
2012-06-15 06:31:55 51°21.875 2°51.487 -999 270 14.9 100960 51
2012-06-15 06:31:59 51°21.888 2°51.486 -999 56 14.9 100960 51
2012-06-15 06:32:05 51°21.908 2°51.485 -999 268 15 100960 52
2012-06-15 06:32:10 51°21.925 2°51.484 -999 305 15 100960 52
2012-06-15 06:32:15 51°21.942 2°51.483 -999 264 14.9 100950 52
2012-06-15 06:32:19 51°21.955 2°51.482 -999 61 14.9 100950 52
2012-06-15 06:32:25 51°21.975 2°51.482 -999 26 14.9 100950 52
2012-06-15 06:32:30 51°21.992 2°51.481 -999 56 14.9 100950 52
2012-06-15 06:32:35 51°22.009 2°51.481 -999 26 14.9 100960 52
2012-06-15 06:32:39 51°22.022 2°51.481 -999 305 14.9 100960 52
2012-06-15 06:32:44 51°22.039 2°51.48 -999 25 14.9 100960 52
2012-06-15 06:32:50 51°22.059 2°51.48 -999 79 14.9 100960 52
2012-06-15 06:32:55 51°22.075 2°51.479 -999 268 14.9 100960 52
2012-06-15 06:32:59 51°22.089 2°51.479 -999 52 14.9 100960 52
2012-06-15 06:33:04 51°22.105 2°51.477 -999 27 14.9 100970 52
2012-06-15 06:33:10 51°22.125 2°51.474 -999 58 14.9 100970 52
2012-06-15 06:33:15 51°22.141 2°51.471 -999 28 15 100960 52
2012-06-15 06:33:19 51°22.154 2°51.469 -999 55 15 100960 52
2012-06-15 06:33:25 51°22.174 2°51.464 -999 15 15 100950 51
2012-06-15 06:33:30 51°22.19 2°51.461 -999 55 15 100950 51
2012-06-15 06:33:35 51°22.206 2°51.457 -999 25 15 100950 52
2012-06-15 06:33:39 51°22.219 2°51.455 -999 55 15 100950 52
2012-06-15 06:33:45 51°22.239 2°51.452 -999 26 15 100950 52
2012-06-15 06:33:50 51°22.256 2°51.449 -999 60 15 100950 52
2012-06-15 06:33:55 51°22.272 2°51.447 -999 26 15 100950 52
2012-06-15 06:33:59 51°22.285 2°51.444 -999 55 15 100950 52
2012-06-15 06:34:05 51°22.305 2°51.441 -999 12 15 100950 52
2012-06-15 06:34:10 51°22.321 2°51.437 -999 305 15 100950 52
2012-06-15 06:34:15 51°22.337 2°51.435 -999 270 15 100950 52
2012-06-15 06:34:20 51°22.354 2°51.432 -999 55 15 100950 52
2012-06-15 06:34:25 51°22.37 2°51.43 -999 269 15 100940 52
2012-06-15 06:34:30 51°22.386 2°51.428 -999 308 15 100940 52
2012-06-15 06:34:35 51°22.403 2°51.426 -999 26 15 100950 51
2012-06-15 06:34:39 51°22.416 2°51.425 -999 55 15 100950 51
2012-06-15 06:34:45 51°22.436 2°51.423 -999 25 15 100950 52
2012-06-15 06:34:50 51°22.452 2°51.422 -999 79 15 100950 52
2012-06-15 06:34:55 51°22.468 2°51.421 -999 19 15 100950 52
2012-06-15 06:34:59 51°22.481 2°51.419 -999 56 15 100950 52
2012-06-15 06:35:05 51°22.501 2°51.418 -999 25 15 100950 52
2012-06-15 06:35:10 51°22.517 2°51.415 -999 56 15 100950 52
2012-06-15 06:35:15 51°22.534 2°51.413 -999 267 15 100940 52
2012-06-15 06:35:19 51°22.547 2°51.411 -999 58 15 100940 52
2012-06-15 06:35:25 51°22.566 2°51.408 -999 25 14.9 100950 52
2012-06-15 06:35:30 51°22.583 2°51.406 -999 310 14.9 100950 52
2012-06-15 06:35:35 51°22.599 2°51.402 -999 27 14.9 100950 52
2012-06-15 06:35:40 51°22.615 2°51.4 -999 56 14.9 100950 52
2012-06-15 06:35:44 51°22.628 2°51.398 -999 26 15 100950 52
2012-06-15 06:35:50 51°22.648 2°51.394 -999 55 15 100950 52
2012-06-15 06:35:55 51°22.664 2°51.391 -999 20 15 100950 52
2012-06-15 06:36:00 51°22.681 2°51.389 -999 55 15 100950 52
2012-06-15 06:36:05 51°22.697 2°51.388 -999 268 15 100940 52
2012-06-15 06:36:10 51°22.714 2°51.386 -999 58 15 100940 52
2012-06-15 06:36:15 51°22.73 2°51.385 -999 25 15 100950 52
2012-06-15 06:36:19 51°22.743 2°51.384 -999 55 15 100950 52
2012-06-15 06:36:25 51°22.763 2°51.383 -999 25 15 100950 52
2012-06-15 06:36:30 51°22.78 2°51.382 -999 55 15 100950 52
2012-06-15 06:36:35 51°22.796 2°51.381 -999 25 15 100950 52
2012-06-15 06:36:39 51°22.809 2°51.381 -999 55 15 100950 52
2012-06-15 06:36:45 51°22.829 2°51.378 -999 24 15 100950 52
2012-06-15 06:36:50 51°22.846 2°51.377 -999 281 15 100950 52
2012-06-15 06:36:55 51°22.862 2°51.375 -999 22 15 100940 52
2012-06-15 06:36:59 51°22.875 2°51.373 -999 305 15 100940 52
2012-06-15 06:37:05 51°22.895 2°51.369 -999 13 15 100940 52
2012-06-15 06:37:10 51°22.911 2°51.366 -999 60 15 100940 52
2012-06-15 06:37:15 51°22.928 2°51.363 -999 263 15 100940 50
2012-06-15 06:37:20 51°22.944 2°51.36 -999 305 15 100940 50
2012-06-15 06:37:24 51°22.957 2°51.357 -999 14 15 100940 52
2012-06-15 06:37:30 51°22.977 2°51.355 -999 309 15 100940 52
2012-06-15 06:37:35 51°22.994 2°51.352 -999 264 15 100940 52
2012-06-15 06:37:39 51°23.007 2°51.35 -999 305 15 100940 52
2012-06-15 06:37:44 51°23.023 2°51.347 -999 266 15 100950 52
2012-06-15 06:37:50 51°23.042 2°51.344 -999 305 15 100950 52
2012-06-15 06:37:55 51°23.059 2°51.341 -999 270 15.1 100940 51
2012-06-15 06:37:59 51°23.072 2°51.339 -999 305 15.1 100940 51
2012-06-15 06:38:05 51°23.091 2°51.335 -999 270 15 100940 52
2012-06-15 06:38:10 51°23.107 2°51.333 -999 309 15 100940 52
2012-06-15 06:38:15 51°23.124 2°51.331 -999 269 15 100940 52
2012-06-15 06:38:20 51°23.14 2°51.33 -999 55 15 100940 52
2012-06-15 06:38:24 51°23.152 2°51.329 -999 25 15.1 100940 52
2012-06-15 06:38:30 51°23.172 2°51.329 -999 60 15.1 100940 52
2012-06-15 06:38:35 51°23.188 2°51.328 -999 26 15.1 100950 52
2012-06-15 06:38:40 51°23.204 2°51.328 -999 55 15.1 100950 52
2012-06-15 06:38:45 51°23.219 2°51.327 -999 25 15.1 100940 52
2012-06-15 06:38:50 51°23.235 2°51.326 -999 79 15.1 100940 52
2012-06-15 06:38:55 51°23.251 2°51.325 -999 25 15.1 100940 52
2012-06-15 06:38:59 51°23.264 2°51.324 -999 55 15.1 100940 52
2012-06-15 06:39:05 51°23.283 2°51.321 -999 269 15.1 100950 51
2012-06-15 06:39:10 51°23.299 2°51.319 -999 305 15.1 100950 51
2012-06-15 06:39:15 51°23.315 2°51.316 -999 266 15.1 100940 51
2012-06-15 06:39:19 51°23.327 2°51.314 -999 305 15.1 100940 51
2012-06-15 06:39:25 51°23.346 2°51.311 -999 260 15 100940 52
2012-06-15 06:39:30 51°23.362 2°51.309 -999 305 15 100940 52
2012-06-15 06:39:35 51°23.378 2°51.305 -999 270 15 100940 51
2012-06-15 06:39:39 51°23.391 2°51.303 -999 305 15 100940 51
2012-06-15 06:39:45 51°23.409 2°51.3 -999 265 15.1 100940 52
2012-06-15 06:39:50 51°23.425 2°51.297 -999 307 15.1 100940 52
2012-06-15 06:39:55 51°23.441 2°51.293 -999 264 15.1 100940 50
2012-06-15 06:39:59 51°23.453 2°51.29 -999 305 15.1 100940 50
2012-06-15 06:40:05 51°23.472 2°51.286 -999 263 15.1 100950 52
2012-06-15 06:40:10 51°23.488 2°51.283 -999 305 15.1 100950 52
2012-06-15 06:40:15 51°23.504 2°51.28 -999 264 15.1 100940 52
2012-06-15 06:40:19 51°23.517 2°51.277 -999 307 15.1 100940 52
2012-06-15 06:40:25 51°23.536 2°51.273 -999 267 15.1 100940 52
2012-06-15 06:40:30 51°23.552 2°51.269 -999 305 15.1 100940 52
2012-06-15 06:40:35 51°23.568 2°51.266 -999 267 15.1 100940 52
2012-06-15 06:40:40 51°23.584 2°51.263 -999 307 15.1 100940 52
2012-06-15 06:40:44 51°23.596 2°51.261 -999 267 15.1 100940 52
2012-06-15 06:40:50 51°23.615 2°51.257 -999 281 15.1 100940 52
2012-06-15 06:40:55 51°23.631 2°51.254 -999 264 15.1 100940 51
2012-06-15 06:40:59 51°23.644 2°51.252 -999 60 15.1 100940 51
2012-06-15 06:41:05 51°23.663 2°51.25 -999 28 15.1 100950 51
2012-06-15 06:41:10 51°23.679 2°51.249 -999 56 15.1 100950 51
2012-06-15 06:41:15 51°23.695 2°51.247 -999 25 15.1 100940 52
2012-06-15 06:41:19 51°23.708 2°51.247 -999 55 15.1 100940 52
2012-06-15 06:41:25 51°23.727 2°51.246 -999 25 15.1 100950 52
2012-06-15 06:41:30 51°23.743 2°51.246 -999 59 15.1 100950 52
2012-06-15 06:41:35 51°23.76 2°51.245 -999 264 15.1 100950 52
2012-06-15 06:41:39 51°23.772 2°51.244 -999 60 15.1 100950 52
2012-06-15 06:41:45 51°23.792 2°51.243 -999 26 15.1 100950 52
2012-06-15 06:41:50 51°23.808 2°51.243 -999 80 15.1 100950 52
2012-06-15 06:41:55 51°23.825 2°51.243 -999 357 15.1 100940 52
2012-06-15 06:41:59 51°23.837 2°51.244 -999 56 15.1 100940 52
2012-06-15 06:42:05 51°23.857 2°51.243 -999 25 15.1 100940 51
2012-06-15 06:42:10 51°23.873 2°51.242 -999 307 15.1 100940 51
2012-06-15 06:42:15 51°23.889 2°51.241 -999 28 15.1 100940 52
2012-06-15 06:42:19 51°23.902 2°51.24 -999 55 15.1 100940 52
2012-06-15 06:42:24 51°23.918 2°51.239 -999 25 15.1 100950 52
2012-06-15 06:42:30 51°23.937 2°51.238 -999 308 15.1 100950 52
2012-06-15 06:42:35 51°23.954 2°51.236 -999 267 15.1 100960 50
2012-06-15 06:42:40 51°23.97 2°51.234 -999 309 15.1 100960 50
2012-06-15 06:42:44 51°23.983 2°51.232 -999 28 15.1 100950 52
2012-06-15 06:42:50 51°24.003 2°51.23 -999 277 15.1 100950 52
2012-06-15 06:42:55 51°24.019 2°51.229 -999 270 15.1 100950 51
2012-06-15 06:42:59 51°24.032 2°51.227 -999 55 15.1 100950 51
2012-06-15 06:43:05 51°24.051 2°51.226 -999 27 15.1 100940 52
2012-06-15 06:43:10 51°24.067 2°51.225 -999 309 15.1 100940 52
2012-06-15 06:43:15 51°24.084 2°51.224 -999 28 15 100950 52
2012-06-15 06:43:19 51°24.096 2°51.223 -999 300 15 100950 52
2012-06-15 06:43:25 51°24.116 2°51.22 -999 27 15.1 100950 52
2012-06-15 06:43:30 51°24.132 2°51.218 -999 308 15.1 100950 52
2012-06-15 06:43:35 51°24.148 2°51.217 -999 26 15 100950 52
2012-06-15 06:43:39 51°24.161 2°51.216 -999 52 15 100950 52
2012-06-15 06:43:45 51°24.181 2°51.215 -999 265 15.1 100940 52
2012-06-15 06:43:50 51°24.197 2°51.214 -999 281 15.1 100940 52